DW4230 Weather Reports


Display with metric or nautical units.
time (UTC)temp
F
wind
direction
speed
MPH
gust
MPH
rain 1hr
in
rain 24hr
in
rain mn
in
humidity
%
barometer
mb
20260505061523 51 250 7.0 16.0 0.00 0.00 0.00 90 1012.0
20260505060106 51 272 9.0 18.0 0.00 0.00 0.00 90 1012.0
20260505054607 51 275 7.0 15.0 0.00 0.00 0.00 90 1012.1
20260505053102 51 262 8.0 16.0 0.00 0.00 0.00 90 1012.1
20260505051554 52 239 8.0 19.0 0.00 0.00 0.00 89 1012.1
20260505041550 51 124 7.0 14.0 0.00 0.00 0.00 89 1012.4
20260505040033 51 267 7.0 14.0 0.00 0.00 0.00 89 1012.5
20260505034515 51 124 8.0 14.0 0.00 0.00 0.00 89 1012.7
20260505033009 51 258 6.0 15.0 0.00 0.00 0.00 89 1012.8
20260505031539 51 273 6.0 16.0 0.00 0.00 0.00 88 1012.8
20260505030048 52 277 8.0 14.0 0.00 0.00 0.00 88 1012.9
20260505024607 52 124 8.0 14.0 0.00 0.00 0.00 88 1012.8
20260505023054 52 268 8.0 18.0 0.00 0.00 0.00 87 1012.9
20260505021521 52 269 10.0 21.0 0.00 0.00 0.00 86 1013.1
20260505020006 52 266 9.0 18.0 0.00 0.00 0.00 86 1012.7
20260505014512 52 124 9.0 20.0 0.00 0.00 0.00 85 1012.7
20260505013015 52 124 8.0 20.0 0.00 0.00 0.00 85 1012.3
20260505011517 53 124 10.0 19.0 0.00 0.00 0.00 84 1012.3
20260505010052 53 252 9.0 19.0 0.00 0.00 0.00 84 1012.1
20260505004547 53 124 10.0 20.0 0.00 0.00 0.00 83 1011.8
20260505003040 53 124 10.0 24.0 0.00 0.00 0.00 82 1011.8
20260505001543 53 124 11.0 21.0 0.00 0.00 0.00 81 1011.2
20260505000048 53 281 11.0 22.0 0.00 0.00 0.00 81 1010.9
20260504234501 53 260 10.0 18.0 0.00 0.00 0.00 81 1010.9
20260504233112 53 279 11.0 24.0 0.00 0.00 0.00 82 1010.9
20260504231504 53 272 11.0 21.0 0.00 0.00 0.00 81 1010.9
20260504230013 53 270 12.0 20.0 0.00 0.00 0.00 81 1010.8
20260504224504 54 239 12.0 21.0 0.00 0.00 0.00 80 1010.7
20260504223022 54 124 11.0 22.0 0.00 0.00 0.00 79 1010.8
20260504221501 54 124 10.0 20.0 0.00 0.00 0.00 80 1010.8
20260504220058 54 243 13.0 23.0 0.00 0.00 0.00 79 1010.7
20260504214511 54 124 12.0 23.0 0.00 0.00 0.00 80 1010.7
20260504213019 55 257 15.0 22.0 0.00 0.00 0.00 78 1010.6
20260504211524 55 275 10.0 24.0 0.00 0.00 0.00 78 1010.7
20260504210025 55 252 14.0 23.0 0.00 0.00 0.00 77 1010.6
20260504204543 55 124 12.0 24.0 0.00 0.00 0.00 76 1010.6
20260504203010 56 261 10.0 20.0 0.00 0.00 0.00 74 1010.4
20260504201520 56 124 11.0 24.0 0.00 0.00 0.00 75 1010.4
20260504200033 56 124 17.0 31.0 0.00 0.00 0.00 73 1010.2
20260504194516 56 124 12.0 27.0 0.00 0.00 0.00 73 1010.3
20260504193038 56 291 10.0 23.0 0.00 0.00 0.00 76 1010.6
20260504191516 56 245 12.0 23.0 0.00 0.00 0.00 78 1010.8
20260504190028 55 267 13.0 28.0 0.00 0.00 0.00 77 1011.0
20260504184516 56 235 12.0 25.0 0.00 0.00 0.00 77 1010.9
20260504183008 56 270 12.0 26.0 0.00 0.00 0.00 76 1010.9
20260504181513 56 242 15.0 29.0 0.00 0.00 0.00 76 1010.8
20260504180003 55 273 10.0 25.0 0.00 0.00 0.00 78 1010.7
20260504174619 55 250 16.0 31.0 0.00 0.00 0.00 79 1010.8
20260504173048 55 124 12.0 26.0 0.00 0.00 0.00 79 1010.8
20260504171527 55 124 15.0 26.0 0.00 0.00 0.00 78 1010.7
20260504081522 49 281 4.0 11.0 0.00 0.00 0.00 77 1011.5